Total_Precipitation_Accumulation
0.99 1.18 1.38 1.75 2.02 2.33 2.64 2.70 2.90 3.06 3.22 3.33 3.28 3.08 2.83 2.69 2.59 2.52 2.47 2.29 2.11 1.99 1.83 1.68 1.68 1.66 1.54 1.41 1.38 1.34 1.20 1.11 1.11 1.06 0.87 0.75 0.69 0.65 0.60 0.61 0.61 0.54 0.50
0.86 0.98 1.16 1.47 1.69 1.89 2.13 2.30 2.45 2.65 2.86 2.98 2.97 2.98 2.98 2.81 2.61 2.54 2.51 2.47 2.39 2.24 2.04 1.87 1.80 1.78 1.74 1.57 1.46 1.49 1.44 1.31 1.31 1.33 1.25 1.06 0.88 0.69 0.62 0.62 0.62 0.60 0.59
0.74 0.82 0.95 1.21 1.40 1.54 1.75 1.94 2.10 2.22 2.32 2.69 2.97 3.00 3.07 2.99 2.66 2.41 2.26 2.35 2.46 2.46 2.28 2.10 2.05 1.98 1.95 1.86 1.73 1.65 1.60 1.55 1.48 1.51 1.66 1.45 1.13 0.85 0.70 0.69 0.68 0.66 0.68
0.77 0.81 0.88 1.04 1.15 1.23 1.43 1.66 1.89 2.02 2.04 2.32 2.60 2.62 2.48 2.44 2.30 2.21 2.25 2.31 2.37 2.45 2.45 2.33 2.18 2.11 2.05 1.99 2.06 2.07 1.94 1.83 1.65 1.53 1.46 1.45 1.30 1.22 0.99 0.78 0.77 0.74 0.71
0.70 0.80 0.84 0.89 0.98 1.04 1.14 1.33 1.66 1.85 1.88 1.94 2.17 2.38 2.41 2.34 2.35 2.33 2.31 2.26 2.18 2.22 2.34 2.36 2.25 2.06 1.94 1.86 1.92 2.01 2.06 1.95 1.78 1.64 1.55 1.48 1.33 1.24 1.26 1.06 0.89 0.85 0.76
0.66 0.72 0.73 0.78 0.90 0.92 0.94 1.08 1.27 1.62 1.79 1.82 1.89 2.04 2.12 2.09 2.14 2.22 2.24 2.25 2.16 2.04 2.04 2.10 2.07 2.05 1.95 1.82 1.84 1.95 2.03 2.05 2.00 1.83 1.65 1.57 1.48 1.29 1.30 1.26 1.10 1.06 0.96
0.61 0.66 0.71 0.80 0.85 0.85 0.83 0.89 1.00 1.27 1.54 1.64 1.63 1.70 1.85 1.90 1.88 1.93 2.06 2.09 2.05 1.94 1.92 2.01 1.98 1.97 1.92 1.90 1.87 1.88 1.87 1.90 1.94 1.89 1.75 1.57 1.44 1.38 1.45 1.49 1.36 1.24 1.11
0.53 0.58 0.62 0.68 0.70 0.70 0.75 0.82 0.90 1.00 1.16 1.30 1.39 1.46 1.56 1.65 1.62 1.61 1.75 1.82 1.78 1.77 1.77 1.88 1.92 1.91 1.92 1.91 1.89 1.86 1.81 1.79 1.80 1.76 1.69 1.58 1.42 1.35 1.41 1.54 1.67 1.64 1.38
0.41 0.44 0.50 0.53 0.54 0.55 0.63 0.71 0.75 0.81 0.90 1.02 1.16 1.28 1.30 1.40 1.47 1.48 1.55 1.68 1.66 1.61 1.60 1.63 1.69 1.74 1.75 1.78 1.80 1.80 1.72 1.66 1.66 1.61 1.54 1.48 1.37 1.28 1.29 1.39 1.58 1.87 1.82
0.34 0.37 0.43 0.48 0.50 0.50 0.48 0.51 0.62 0.74 0.81 0.83 0.95 1.10 1.17 1.18 1.26 1.34 1.38 1.43 1.42 1.38 1.37 1.41 1.46 1.51 1.53 1.56 1.65 1.65 1.62 1.61 1.55 1.51 1.48 1.42 1.35 1.33 1.33 1.37 1.46 1.61 1.77
0.33 0.34 0.36 0.41 0.50 0.51 0.46 0.43 0.51 0.63 0.69 0.72 0.78 0.88 0.99 1.05 1.09 1.12 1.16 1.19 1.20 1.20 1.20 1.23 1.30 1.36 1.38 1.37 1.43 1.50 1.52 1.51 1.46 1.43 1.41 1.37 1.32 1.32 1.31 1.34 1.39 1.45 1.54
0.37 0.34 0.32 0.35 0.45 0.51 0.51 0.48 0.49 0.55 0.62 0.65 0.70 0.79 0.83 0.89 1.00 1.06 1.02 1.01 1.04 1.06 1.04 1.01 1.06 1.11 1.14 1.17 1.20 1.23 1.29 1.33 1.33 1.35 1.38 1.37 1.38 1.43 1.44 1.45 1.44 1.42 1.40
0.40 0.37 0.34 0.33 0.39 0.48 0.53 0.50 0.51 0.53 0.57 0.62 0.65 0.72 0.75 0.76 0.83 0.93 0.97 0.96 0.98 1.03 1.04 0.98 0.97 0.97 0.98 1.04 1.06 1.06 1.09 1.15 1.18 1.22 1.29 1.33 1.37 1.46 1.48 1.46 1.43 1.37 1.32
0.43 0.42 0.44 0.40 0.39 0.43 0.48 0.47 0.51 0.52 0.53 0.59 0.62 0.64 0.72 0.72 0.73 0.78 0.85 0.90 0.91 0.95 0.95 0.96 0.95 0.95 0.94 0.98 1.04 1.07 1.09 1.14 1.18 1.20 1.23 1.24 1.25 1.25 1.26 1.26 1.24 1.25 1.26
0.40 0.40 0.42 0.45 0.43 0.42 0.45 0.44 0.47 0.51 0.49 0.54 0.58 0.60 0.65 0.68 0.72 0.74 0.78 0.84 0.87 0.90 0.92 0.94 0.95 0.93 0.93 0.98 1.05 1.10 1.12 1.16 1.21 1.26 1.23 1.17 1.16 1.10 1.07 1.06 1.05 1.07 1.16
0.39 0.38 0.35 0.39 0.39 0.42 0.45 0.47 0.47 0.49 0.51 0.51 0.52 0.56 0.60 0.62 0.67 0.73 0.75 0.77 0.83 0.89 0.94 1.00 1.04 1.05 1.07 1.23 1.27 1.23 1.20 1.17 1.14 1.12 1.08 1.05 1.05 1.02 1.05 1.05 1.04 1.09 1.21
0.32 0.33 0.33 0.35 0.36 0.38 0.41 0.44 0.46 0.47 0.50 0.53 0.52 0.54 0.58 0.61 0.64 0.71 0.79 0.86 0.90 0.99 1.06 1.10 1.19 1.21 1.22 1.27 1.17 1.15 1.10 1.13 1.09 1.00 0.92 0.88 0.83 0.86 0.80 0.89 0.96 0.98 1.06
0.29 0.27 0.28 0.27 0.28 0.30 0.33 0.38 0.41 0.45 0.48 0.53 0.58 0.60 0.61 0.67 0.73 0.77 0.84 0.93 1.01 1.09 1.17 1.16 1.17 1.19 1.20 1.20 1.09 1.05 0.93 0.89 0.90 0.86 0.79 0.73 0.71 0.72 0.76 0.83 0.90 0.82 0.78
0.32 0.30 0.29 0.28 0.28 0.30 0.33 0.39 0.44 0.46 0.46 0.51 0.58 0.63 0.65 0.74 0.81 0.82 0.87 0.94 0.99 1.05 1.09 1.10 1.06 0.98 0.98 1.00 0.92 0.88 0.80 0.79 0.77 0.74 0.74 0.75 0.69 0.77 0.90 0.90 0.89 0.76 0.65
0.29 0.33 0.34 0.31 0.33 0.35 0.37 0.43 0.51 0.59 0.61 0.60 0.64 0.71 0.79 0.88 0.91 0.88 0.88 0.87 0.88 0.89 0.86 0.84 0.81 0.76 0.73 0.77 0.75 0.73 0.64 0.66 0.66 0.68 0.71 0.80 0.76 0.84 0.95 0.85 0.81 0.74 0.63
0.32 0.33 0.37 0.38 0.41 0.43 0.44 0.46 0.51 0.65 0.72 0.74 0.75 0.77 0.84 0.88 0.90 0.86 0.82 0.79 0.75 0.75 0.72 0.69 0.67 0.64 0.63 0.65 0.65 0.66 0.60 0.59 0.63 0.65 0.63 0.65 0.84 0.91 0.90 0.81 0.68 0.72 0.76
0.31 0.35 0.41 0.45 0.45 0.50 0.56 0.56 0.58 0.65 0.71 0.75 0.76 0.75 0.75 0.76 0.80 0.81 0.78 0.74 0.73 0.72 0.70 0.69 0.70 0.68 0.67 0.65 0.64 0.68 0.70 0.72 0.66 0.61 0.55 0.61 0.81 0.80 0.75 0.68 0.71 0.83 0.79
0.33 0.38 0.46 0.51 0.53 0.53 0.58 0.62 0.59 0.58 0.62 0.67 0.70 0.68 0.65 0.64 0.65 0.69 0.72 0.73 0.72 0.71 0.71 0.71 0.71 0.70 0.68 0.71 0.75 0.73 0.79 0.81 0.70 0.67 0.75 0.78 0.73 0.65 0.61 0.65 0.70 0.70 0.65
0.33 0.36 0.41 0.46 0.48 0.49 0.51 0.54 0.50 0.48 0.50 0.54 0.59 0.62 0.60 0.58 0.57 0.57 0.64 0.68 0.70 0.68 0.67 0.68 0.70 0.69 0.65 0.65 0.71 0.73 0.76 0.78 0.75 0.77 0.82 0.77 0.68 0.61 0.59 0.63 0.63 0.60 0.62
0.33 0.35 0.38 0.43 0.46 0.45 0.46 0.46 0.45 0.44 0.46 0.47 0.50 0.53 0.57 0.59 0.60 0.60 0.64 0.69 0.70 0.76 0.75 0.68 0.66 0.68 0.67 0.69 0.81 0.82 0.77 0.81 0.85 0.84 0.70 0.62 0.60 0.59 0.55 0.54 0.54 0.58 0.64
0.35 0.35 0.36 0.40 0.46 0.46 0.45 0.45 0.43 0.44 0.47 0.49 0.49 0.51 0.57 0.60 0.61 0.61 0.64 0.71 0.74 0.79 0.79 0.77 0.73 0.68 0.72 0.79 0.84 0.88 0.93 0.96 0.94 0.83 0.69 0.64 0.59 0.56 0.52 0.51 0.54 0.56 0.62